| time (UTC) | temp F | wind direction | speed MPH | gust MPH | rain 1hr in | rain 24hr in | rain mn in | humidity % | barometer mb |
| 20260503221526 | 43 | 70 | 0.0 | 0.0 | 0.00 | 0.26 | 0.05 | 97 | 1008.5 |
| 20260503220031 | 43 | 70 | 0.0 | 0.0 | 0.00 | 0.26 | 0.05 | 97 | 1008.5 |
| 20260503213030 | 43 | 70 | 0.0 | 0.0 | 0.00 | 0.26 | 0.05 | 97 | 1008.8 |
| 20260503211520 | 43 | 71 | 0.0 | 0.0 | 0.00 | 0.26 | 0.05 | 97 | 1008.8 |
| 20260503210020 | 43 | 70 | 0.0 | 0.0 | 0.00 | 0.26 | 0.05 | 97 | 1009.0 |
| 20260503203017 | 43 | 71 | 0.0 | 0.0 | 0.00 | 0.26 | 0.05 | 97 | 1009.2 |
| 20260503201516 | 43 | 70 | 0.0 | 0.0 | 0.00 | 0.26 | 0.05 | 97 | 1009.4 |
| 20260503200015 | 43 | 70 | 0.0 | 0.0 | 0.00 | 0.26 | 0.05 | 97 | 1009.3 |
| 20260503193015 | 43 | 71 | 0.0 | 0.0 | 0.00 | 0.26 | 0.05 | 97 | 1009.4 |
| 20260503191514 | 43 | 70 | 0.0 | 0.0 | 0.00 | 0.26 | 0.05 | 97 | 1009.4 |
| 20260503190017 | 43 | 71 | 0.0 | 0.0 | 0.00 | 0.26 | 0.05 | 97 | 1009.6 |
| 20260503183010 | 43 | 70 | 0.0 | 0.0 | 0.00 | 0.26 | 0.05 | 97 | 1009.5 |
| 20260503181528 | 43 | 71 | 0.0 | 0.0 | 0.00 | 0.26 | 0.05 | 97 | 1009.5 |
| 20260503180021 | 43 | 70 | 0.0 | 0.0 | 0.00 | 0.26 | 0.05 | 97 | 1009.5 |
| 20260503173009 | 43 | 71 | 0.0 | 0.0 | 0.00 | 0.26 | 0.05 | 97 | 1009.4 |
| 20260503171520 | 43 | 67 | 0.0 | 0.0 | 0.00 | 0.26 | 0.05 | 97 | 1009.4 |
| 20260503081530 | 42 | 336 | 0.0 | 8.0 | 0.01 | 0.16 | 0.16 | 95 | 1011.1 |
| 20260503071526 | 42 | 54 | 0.0 | 2.0 | 0.00 | 0.15 | 0.15 | 96 | 1010.5 |
| 20260503053019 | 0 | 0.0 | 0.0 | 0.00 | 0.15 | 0.15 | 1010.1 | ||
| 20260503051518 | 0 | 0.0 | 0.0 | 0.00 | 0.15 | 0.15 | 1010.0 | ||
| 20260503050019 | 0 | 0.0 | 0.0 | 0.00 | 0.15 | 0.15 | 1009.8 | ||
| 20260503043014 | 0 | 0.0 | 0.0 | 0.00 | 0.15 | 0.15 | 1009.8 | ||
| 20260503041511 | 50 | 326 | 0.0 | 0.0 | 0.01 | 0.15 | 0.15 | 96 | 1009.4 |
| 20260503040023 | 49 | 60 | 0.0 | 0.0 | 0.01 | 0.15 | 0.15 | 96 | 1009.0 |
| 20260503033008 | 49 | 320 | 0.0 | 0.0 | 0.02 | 0.15 | 0.15 | 96 | 1008.7 |
| 20260503031506 | 49 | 287 | 0.0 | 0.0 | 0.02 | 0.14 | 0.14 | 96 | 1008.8 |
| 20260503030006 | 49 | 287 | 0.0 | 0.0 | 0.02 | 0.14 | 0.14 | 96 | 1008.7 |
| 20260503023006 | 50 | 309 | 0.0 | 0.0 | 0.04 | 0.13 | 0.13 | 95 | 1008.6 |
| 20260503021510 | 50 | 312 | 0.0 | 0.0 | 0.06 | 0.13 | 0.13 | 95 | 1008.6 |
| 20260503020004 | 50 | 303 | 0.0 | 1.0 | 0.06 | 0.12 | 0.12 | 94 | 1008.4 |
| 20260503013002 | 50 | 341 | 0.0 | 0.0 | 0.05 | 0.10 | 0.10 | 92 | 1008.2 |
| 20260503011609 | 50 | 341 | 0.0 | 0.0 | 0.04 | 0.08 | 0.08 | 91 | 1008.2 |
| 20260503010105 | 50 | 341 | 0.0 | 0.0 | 0.05 | 0.06 | 0.06 | 90 | 1007.9 |
| 20260503003103 | 51 | 34 | 0.0 | 0.0 | 0.06 | 0.06 | 0.06 | 88 | 1007.9 |
| 20260503001602 | 52 | 329 | 0.0 | 0.0 | 0.05 | 0.05 | 0.05 | 85 | 1008.7 |
| 20260503000052 | 53 | 315 | 0.0 | 1.0 | 0.02 | 0.02 | 0.02 | 80 | 1008.9 |
| 20260502233042 | 57 | 311 | 3.0 | 9.0 | 0.00 | 0.00 | 0.00 | 65 | 1008.6 |
| 20260502231543 | 58 | 316 | 2.0 | 6.0 | 0.00 | 0.00 | 0.00 | 57 | 1008.3 |
| 20260502230039 | 58 | 307 | 0.0 | 0.0 | 0.00 | 0.00 | 0.00 | 62 | 1007.9 |
| 20260502223033 | 60 | 250 | 0.0 | 2.0 | 0.00 | 0.00 | 0.00 | 55 | 1007.7 |